EDT,Max TemperatureF,Mean TemperatureF,Min TemperatureF,Max Dew PointF,MeanDew PointF,Min DewpointF,Max Humidity, Mean Humidity, Min Humidity, Max Sea Level PressureIn, Mean Sea Level PressureIn, Min Sea Level PressureIn, Max VisibilityMiles, Mean VisibilityMiles, Min VisibilityMiles, Max Wind SpeedMPH, Mean Wind SpeedMPH, Max Gust SpeedMPH,PrecipitationIn, CloudCover, Events, WindDirDegrees
2013-5-1,66,50,34,41,34,28,85,56,26,30.50,30.44,30.36,10,10,10,12,2,17,0.00,0,,131
2013-5-2,73,55,37,43,39,34,93,55,28,30.47,30.41,30.32,10,10,9,10,3,16,0.00,1,,159
2013-5-3,66,57,46,43,36,31,83,50,34,30.48,30.42,30.35,10,10,10,12,7,18,0.00,2,,100
2013-5-4,70,54,37,44,40,35,89,64,35,30.38,30.30,30.24,10,10,9,15,4,23,0.00,0,,124
2013-5-5,64,50,37,41,38,36,93,70,37,30.32,30.28,30.22,10,9,6,12,3,20,0.00,2,,119
2013-5-6,69,54,39,50,44,36,93,72,49,30.29,30.23,30.16,10,9,5,12,2,18,0.00,3,,125
2013-5-7,72,57,42,55,48,39,93,73,46,30.18,30.15,30.10,10,8,1,10,2,18,0.00,3,,141
2013-5-8,64,60,54,61,57,51,94,88,81,30.13,30.07,30.01,10,7,1,14,6,22,0.72,6,Rain,98
2013-5-9,64,58,53,56,53,51,100,89,67,30.04,29.96,29.90,10,6,1,8,2,,0.12,7,Rain,69
2013-5-10,77,60,46,56,50,45,100,78,37,30.00,29.96,29.90,10,7,0,10,2,16,0.00,1,Fog-Rain,209
2013-5-11,66,62,59,61,58,53,94,88,75,29.90,29.79,29.71,10,5,2,13,5,18,0.32,7,Rain,178
2013-5-12,66,58,48,58,45,23,94,67,22,29.91,29.72,29.66,10,8,2,18,4,29,0.07,5,Rain,269
2013-5-13,55,44,36,32,28,24,86,52,34,30.10,30.01,29.92,10,10,10,13,7,23,0.00,2,,271
2013-5-14,57,45,33,32,29,22,89,57,27,30.13,30.08,30.03,10,10,10,10,3,17,0.00,1,,277
2013-5-15,64,48,33,50,42,29,93,74,46,30.08,29.90,29.70,10,10,6,15,3,31,0.03,3,Rain,160
2013-5-16,82,62,44,51,43,36,93,61,22,29.84,29.76,29.72,10,8,2,12,2,24,0.00,0,,274
2013-5-17,69,58,46,45,40,37,83,57,31,30.23,30.06,29.86,10,10,10,15,5,24,0.00,0,,317
2013-5-18,69,55,42,51,44,39,92,67,40,30.32,30.29,30.23,10,10,10,13,3,17,0.00,3,,185
2013-5-19,57,55,53,54,52,46,94,88,69,30.35,30.29,30.22,10,4,2,8,4,16,0.25,8,Rain,138
2013-5-20,79,66,55,64,58,54,100,85,60,30.16,30.07,29.97,10,6,0,12,3,,0.01,5,Fog,238
2013-5-21,86,72,57,67,61,55,94,80,51,29.98,29.92,29.84,10,6,0,14,3,17,0.00,1,Fog,214
2013-5-22,71,62,57,64,58,54,94,89,78,29.95,29.93,29.89,10,6,2,13,4,20,0.01,7,Rain-Thunderstorm,111
2013-5-23,75,68,64,68,64,62,94,89,83,29.91,29.85,29.77,10,4,0,10,7,17,0.55,8,Fog-Rain-Thunderstorm,167
2013-5-24,64,54,44,63,52,39,97,86,71,29.92,29.80,29.68,10,8,2,15,8,25,0.32,8,Rain,306
2013-5-25,50,46,42,43,39,37,89,82,68,29.95,29.89,29.86,10,7,2,17,9,31,0.68,8,Rain,321
2013-5-26,61,52,42,39,36,34,80,58,39,30.19,30.01,29.90,10,10,10,21,8,33,0.00,4,,296
2013-5-27,73,54,37,43,38,33,89,55,25,30.23,30.18,30.12,10,10,10,12,4,24,0.00,0,,253
2013-5-28,68,56,43,55,50,41,94,85,40,30.23,30.20,30.15,10,5,2,9,2,,0.21,5,Rain,148
2013-5-29,81,68,57,66,59,55,96,86,60,30.15,30.09,30.00,9,5,0,9,2,,0.01,6,Fog-Rain,191
2013-5-30,89,74,60,68,63,57,97,78,42,30.12,30.09,30.05,10,6,0,8,2,,0.00,0,Fog,243
2013-5-31,91,76,60,67,62,57,94,68,34,30.13,30.07,30.00,10,8,2,12,2,20,0.00,0,,220